Temp
59 57 57 59 58 57 57 58 59 59 60 60 60 59 58 57 57 58 58 59 59 58
60 59 60 59 58 59 59 61 60 60 60 60 60 59 58 57 58 58 58 57 58 58
60 60 60 60 60 59 59 59 59 59 59 59 59 59 59 60 61 61 61 58 58 59
60 60 59 59 59 59 59 60 60 59 59 59 59 60 61 60 62 61 61 60 60 59
60 60 58 59 59 59 59 60 60 60 60 60 59 61 61 61 58 59 60 60 60 60
59 59 58 59 59 60 60 60 61 60 60 60 59 60 62 62 61 60 60 61 61 61
58 58 59 59 60 60 61 60 60 61 61 61 61 61 61 61 60 60 60 60 61 61
58 59 60 60 60 60 61 61 62 62 62 62 62 61 60 61 60 59 59 60 61 61
60 61 60 59 59 59 59 60 61 62 63 61 61 50 54 58 60 60 60 59 60 60
61 61 59 59 59 57 56 58 59 60 61 59 59 49 50 54 61 60 60 60 60 61
62 60 59 58 57 55 55 55 55 56 59 59 56 47 48 53 61 60 60 60 60 60
62 59 58 57 55 54 54 55 54 55 56 56 55 46 48 57 60 60 59 60 60 61
61 60 58 56 55 54 54 55 57 56 56 52 54 45 47 55 59 57 58 58 58 53
60 59 58 56 56 54 54 54 54 54 53 54 53 50 46 49 58 57 56 56 55 55
MSLP
1007.69 1007.94 1007.93 1007.74 1007.65 1007.71 1007.69 1007.61 1007.57 1007.71 1007.92 1008.18 1008.38 1008.63 1008.98 1009.25 1009.59 1009.72 1010.09 1010.30 1010.58 1011.00
1007.72 1007.82 1007.75 1007.58 1007.63 1007.62 1007.53 1007.55 1007.56 1007.78 1008.07 1008.27 1008.45 1008.72 1009.16 1009.44 1009.69 1010.07 1010.38 1010.65 1010.96 1011.32
1007.74 1007.75 1007.66 1007.57 1007.72 1007.57 1007.58 1007.48 1007.52 1007.84 1008.19 1008.43 1008.71 1008.87 1009.29 1009.74 1010.11 1010.38 1010.79 1010.97 1011.29 1011.69
1007.76 1007.86 1007.81 1007.74 1007.87 1007.69 1007.58 1007.63 1007.70 1007.90 1008.31 1008.78 1009.10 1009.35 1009.58 1009.94 1010.30 1010.64 1010.99 1011.36 1011.66 1012.08
1007.82 1008.01 1008.09 1007.96 1008.03 1007.92 1007.86 1007.76 1007.85 1008.08 1008.51 1008.99 1009.41 1009.67 1009.94 1010.19 1010.63 1010.95 1011.31 1011.59 1012.02 1012.51
1007.98 1008.20 1008.30 1008.15 1008.20 1008.16 1008.07 1008.11 1008.27 1008.50 1008.86 1009.27 1009.66 1009.96 1010.29 1010.47 1010.79 1011.20 1011.57 1011.98 1012.35 1012.66
1008.08 1008.29 1008.32 1008.41 1008.46 1008.38 1008.31 1008.41 1008.67 1009.01 1009.32 1009.61 1009.94 1010.36 1010.74 1011.01 1011.34 1011.67 1012.03 1012.32 1012.57 1012.94
1008.12 1008.24 1008.37 1008.65 1008.69 1008.68 1008.75 1008.87 1008.93 1009.21 1009.55 1009.91 1010.32 1010.80 1011.18 1011.47 1011.79 1012.05 1012.42 1012.74 1012.99 1013.33
1008.15 1008.33 1008.60 1008.82 1009.05 1009.18 1009.17 1009.32 1009.19 1009.43 1009.77 1010.27 1010.60 1010.91 1011.30 1011.67 1012.11 1012.41 1012.77 1013.10 1013.47 1013.90
1008.17 1008.45 1008.76 1009.01 1009.30 1009.62 1009.70 1009.71 1009.80 1010.01 1010.17 1010.64 1010.77 1011.18 1011.48 1011.91 1012.27 1012.63 1012.96 1013.35 1013.75 1014.17
1008.13 1008.60 1008.92 1009.22 1009.56 1009.90 1010.12 1010.30 1010.32 1010.52 1010.68 1010.93 1011.36 1011.63 1011.99 1012.26 1012.63 1013.00 1013.24 1013.70 1014.07 1014.57
1008.05 1008.71 1009.16 1009.49 1009.85 1010.17 1010.33 1010.63 1010.87 1011.00 1011.20 1011.43 1012.11 1012.11 1012.45 1012.69 1013.03 1013.52 1013.95 1014.29 1014.61 1015.02
1007.88 1008.50 1009.15 1009.63 1010.04 1010.32 1010.56 1010.79 1011.05 1011.44 1011.61 1011.86 1012.41 1012.73 1012.81 1013.01 1013.35 1013.86 1014.32 1014.74 1015.14 1015.59
1007.74 1008.24 1008.80 1009.52 1009.95 1010.48 1010.91 1011.12 1011.44 1011.83 1012.14 1012.25 1012.44 1012.92 1013.04 1013.27 1013.54 1014.00 1014.55 1015.00 1015.57 1015.89
Wind_Speed
2 2 1 1 1 1 1 2 4 3 4 4 4 5 5 3 3 4 4 5 4 3
0 1 2 2 2 0 1 1 3 4 3 4 4 6 6 4 4 5 3 4 5 4
1 1 1 2 3 2 2 2 4 5 4 5 5 5 6 5 6 6 4 3 6 6
2 3 2 3 3 1 2 4 4 5 5 6 6 6 7 5 8 8 7 5 7 7
3 4 3 3 3 3 3 4 5 6 6 7 6 8 10 9 6 8 8 6 8 8
3 4 4 3 3 3 4 5 6 6 6 7 6 9 8 7 6 7 6 7 8 8
4 4 3 3 3 3 4 5 6 6 7 8 8 8 7 7 7 7 6 5 6 9
4 4 4 4 4 4 6 5 6 8 7 8 8 6 7 9 6 7 7 5 6 7
5 4 5 5 5 5 5 5 5 6 6 7 5 10 10 8 7 7 8 7 7 9
6 5 6 5 5 5 5 5 5 4 6 5 6 10 10 9 6 7 6 7 7 8
6 6 6 6 6 5 4 5 4 5 5 6 4 9 10 11 7 6 6 6 5 8
7 7 6 6 6 3 5 4 4 4 6 7 5 6 9 9 7 7 6 5 5 6
7 9 7 7 6 3 3 5 5 6 5 7 6 7 9 8 5 7 5 4 5 8
7 9 8 7 4 5 5 6 6 6 4 6 6 6 9 10 6 6 5 5 4 3
Wind_Direction
170 238 285 326 331 21 78 145 158 155 135 127 143 131 127 126 135 137 123 143 98 111
309 267 296 2 27 353 85 155 168 161 141 121 128 143 134 127 106 92 93 109 105 94
265 22 34 33 53 36 49 111 141 152 144 115 108 115 111 118 116 114 107 112 106 91
171 95 73 49 36 57 14 103 129 133 129 115 113 113 126 114 134 135 124 107 109 102
157 114 84 55 39 40 45 75 113 113 113 110 110 125 131 129 115 122 115 112 114 122
148 113 105 80 69 56 64 91 97 94 103 105 104 119 125 125 93 86 101 114 128 121
152 134 141 89 69 67 64 84 95 93 92 103 104 108 109 110 105 98 94 97 120 120
140 134 120 103 82 73 72 80 102 110 109 108 106 111 112 120 114 111 108 97 96 94
139 130 123 125 117 88 88 85 105 107 124 110 111 124 117 116 118 120 129 127 109 111
145 136 130 129 109 100 81 90 86 91 109 115 135 147 136 130 113 112 100 108 120 121
148 137 138 135 125 106 92 93 109 116 104 110 105 128 126 111 113 106 94 108 103 113
149 135 140 137 137 117 113 95 85 111 116 112 115 130 124 113 113 112 107 108 117 125
153 144 149 148 154 126 124 117 110 98 109 120 132 159 140 120 116 117 122 105 112 127
159 153 152 146 144 134 128 118 109 101 93 113 134 155 149 135 136 139 139 139 145 156